Dewpoint
72 74 73 73 74 72 71 69 58 55 59 52 52 53 56 61 60 60 59 60 60 59 62 63 61 60 59 57 56 56 57 63 59 55 58 67 70 68 69 66 64 68 72 73 75 76 76 76 76 76 76 76 76 77 76 76 76 76 76 76 76 76 76 76 75 75 76 76 76 76 76 76 76 77 77 77 77 77 77 77 77 77 78 77 76 75 75 74 75 75 75 75 74 74 74 73 73
71 72 73 75 73 73 65 65 56 51 53 49 51 55 57 59 61 58 57 60 57 58 59 61 61 60 60 59 58 58 57 61 65 66 67 68 67 67 67 64 63 68 72 73 74 74 75 76 76 76 76 76 75 76 76 76 75 76 76 76 76 76 76 76 75 76 76 76 76 77 76 76 77 76 76 76 77 77 77 77 77 77 77 77 76 75 74 75 76 76 75 75 75 75 74 74 73
71 72 72 72 72 68 65 63 53 51 49 47 52 54 60 58 57 58 58 63 60 60 62 63 61 61 59 59 58 61 60 63 63 65 67 68 65 69 66 62 64 70 72 72 72 73 75 75 76 76 76 76 76 76 76 76 76 76 76 76 76 76 76 76 76 76 76 76 77 77 77 76 76 77 77 77 77 77 77 77 76 78 77 76 76 75 75 76 76 76 76 75 75 74 74 74 74
72 73 71 71 66 65 61 55 54 50 49 49 51 57 59 57 58 61 62 62 61 60 63 62 62 61 60 58 59 58 62 63 65 66 66 66 65 67 65 63 69 70 71 72 75 73 75 75 76 76 76 76 76 76 76 76 76 76 76 76 76 76 76 76 76 76 75 76 76 76 76 77 77 77 77 77 77 77 77 76 77 77 77 76 76 75 76 76 76 76 76 76 75 75 74 74 74
71 71 70 69 66 58 59 55 52 51 48 50 54 57 59 60 60 62 63 61 61 61 60 60 60 60 60 60 60 61 61 63 65 66 65 66 67 67 66 67 67 69 72 72 73 73 73 75 76 76 76 76 76 76 76 76 76 76 76 76 76 76 76 76 76 76 76 75 76 76 76 76 77 77 76 76 77 76 76 76 77 77 77 76 75 75 76 76 77 76 76 75 75 74 74 74 73
70 71 72 70 61 63 62 53 51 52 56 58 53 57 59 61 61 60 59 61 61 61 63 61 57 58 58 61 62 62 63 66 65 65 66 66 67 68 67 66 66 68 71 74 72 74 74 75 75 76 75 76 76 76 76 76 76 76 76 76 76 75 76 76 76 75 75 76 77 77 76 76 76 77 77 77 76 76 76 77 77 77 76 76 76 76 76 77 77 77 76 76 75 75 75 74 74
70 69 70 68 66 64 53 51 52 52 55 62 57 58 60 62 63 62 59 60 60 60 62 59 58 58 58 60 62 64 65 65 65 66 67 67 68 68 67 65 66 69 71 73 76 73 75 76 75 75 75 75 76 75 75 76 75 76 76 75 75 75 76 76 76 76 76 76 76 76 76 76 76 76 76 77 77 77 77 76 76 76 76 76 76 76 76 76 77 77 76 76 75 75 75 75 74
71 69 61 58 52 55 51 51 51 56 55 62 61 61 62 63 63 62 60 61 60 60 59 59 58 57 57 61 61 65 67 68 68 68 67 68 68 68 68 66 66 68 71 72 74 75 77 76 75 75 75 75 76 76 75 75 76 75 75 75 75 75 75 76 76 75 75 76 76 76 76 76 76 76 76 76 77 76 77 76 76 76 76 76 76 76 76 76 76 77 76 76 76 76 76 75 75
70 66 67 62 51 55 48 49 49 57 58 61 61 63 63 65 65 62 58 59 61 61 60 62 58 58 60 60 60 65 67 68 68 70 68 68 68 68 67 67 66 68 70 71 73 75 76 76 76 75 75 75 76 76 76 75 75 75 75 75 75 75 75 76 75 75 75 75 75 75 76 76 76 76 76 76 76 76 76 76 76 76 76 76 75 76 75 76 76 77 76 76 76 76 76 76 75
68 62 51 54 54 49 50 50 50 51 56 60 62 65 64 64 64 64 60 60 61 62 60 61 59 57 59 58 61 65 67 68 68 68 69 69 69 68 67 67 67 67 70 71 74 74 75 76 76 76 75 75 75 76 76 75 76 75 75 75 75 75 75 75 74 74 75 74 74 75 76 76 76 76 75 76 76 76 76 76 76 76 76 76 76 75 75 75 76 77 76 76 76 76 76 76 75
55 62 59 53 46 42 48 48 52 56 57 59 60 63 65 64 62 61 62 57 59 60 62 65 59 59 59 60 62 67 68 68 68 68 69 70 70 68 67 68 67 67 69 70 74 74 73 75 75 75 75 75 75 75 75 75 75 75 75 75 75 75 75 75 74 74 75 75 75 75 76 76 76 76 76 76 75 76 76 75 75 76 76 76 76 76 75 75 76 76 76 76 76 75 75 75 75
52 46 54 44 44 46 45 49 54 54 57 58 60 64 62 63 61 60 56 57 57 58 59 62 56 58 57 58 63 67 67 68 68 69 69 69 68 68 68 68 68 67 68 69 73 74 74 75 75 74 75 75 75 75 75 75 75 75 75 75 75 75 75 75 74 74 74 74 74 75 75 75 75 76 76 75 76 76 76 76 75 75 75 76 76 76 75 75 75 76 76 76 75 74 75 75 75
54 48 46 39 42 43 51 48 50 56 56 57 60 64 63 62 63 61 59 58 58 61 60 59 57 60 57 60 65 66 67 67 68 69 68 67 67 68 68 68 68 68 68 70 72 73 74 75 75 75 74 74 74 75 74 74 74 75 75 75 75 75 75 75 75 75 75 75 75 75 75 75 75 75 75 75 76 75 75 75 75 75 75 75 76 76 76 75 75 75 75 75 74 74 75 75 75
55 51 53 44 50 45 44 48 52 49 49 57 62 65 63 63 63 62 59 61 59 63 59 58 60 59 58 61 64 64 66 67 68 68 67 67 67 67 67 67 67 68 69 70 74 74 74 75 75 75 75 75 75 74 74 75 75 75 75 75 75 75 75 75 75 75 75 75 75 75 75 75 75 76 75 75 75 75 75 74 74 74 74 75 75 75 75 75 75 75 75 75 75 75 75 75 75
53 52 52 47 39 41 48 42 47 48 49 58 64 64 63 64 64 62 63 62 61 61 60 61 60 62 58 62 60 62 65 68 68 68 67 67 67 67 67 67 67 68 68 69 72 75 73 73 73 73 74 75 75 76 75 75 74 75 75 75 75 75 75 74 75 74 75 75 75 75 75 75 75 75 75 75 75 75 74 74 74 74 74 75 75 74 74 75 75 75 75 75 75 75 75 75 76
50 52 49 41 38 39 40 45 51 48 47 57 64 65 63 64 64 63 63 63 59 60 62 61 61 62 56 59 60 64 66 67 68 67 67 67 67 67 67 68 67 67 68 69 71 73 73 73 73 74 74 73 74 75 75 74 74 74 74 74 74 74 75 74 74 74 74 75 75 75 75 75 75 75 75 75 75 74 73 73 73 74 74 74 74 74 74 75 75 75 75 75 75 75 75 75 76
54 57 43 36 36 38 40 43 45 42 50 58 64 63 61 61 63 64 62 61 64 59 61 62 60 62 61 61 63 66 67 68 69 67 66 66 67 66 67 68 68 68 68 69 71 72 72 72 72 73 73 73 74 74 74 74 74 73 74 74 74 74 74 74 74 74 73 74 74 74 75 76 77 76 75 76 74 74 73 73 74 73 74 73 74 75 74 74 74 75 75 75 74 75 75 75 75
52 43 40 36 37 38 45 47 49 52 52 57 62 62 61 61 62 63 62 63 63 62 64 64 64 63 63 63 65 66 67 68 67 65 65 65 65 65 65 66 67 68 69 70 70 72 73 72 73 73 73 73 73 73 73 74 74 74 75 76 75 74 74 73 74 75 73 75 74 75 75 76 76 75 76 74 74 75 73 72 74 73 74 74 74 74 74 74 74 74 74 74 75 74 74 75 75
41 40 38 35 39 41 48 51 55 54 54 58 62 63 62 62 58 62 61 61 62 60 64 66 65 63 64 65 65 66 67 67 66 64 64 64 64 64 64 67 67 66 67 69 71 70 74 73 72 72 72 74 74 73 73 73 74 74 75 76 74 73 75 75 75 75 75 75 75 75 76 74 76 75 75 75 75 74 73 73 73 73 74 74 74 74 74 74 74 74 75 74 74 74 76 75 75
44 42 35 39 41 42 50 54 57 61 60 59 61 63 63 63 62 61 59 60 61 60 63 63 64 63 63 65 65 66 67 66 66 65 63 63 64 63 64 64 65 67 67 68 70 70 72 73 74 74 75 75 75 74 73 74 75 75 74 75 75 74 75 74 75 74 75 75 75 75 76 76 75 76 74 74 74 75 74 73 74 74 74 74 74 74 74 74 74 74 74 74 73 74 75 74 73
43 40 36 41 42 43 49 55 60 61 61 61 60 64 62 63 63 62 61 59 60 60 60 62 65 66 65 65 64 64 65 64 65 65 63 62 63 63 64 64 65 66 66 68 70 69 71 73 74 75 76 75 75 74 73 74 75 74 73 74 75 75 75 75 74 74 74 74 75 76 76 76 75 76 75 75 76 76 74 73 74 74 75 76 74 74 74 74 74 74 74 74 75 73 73 74 73
36 34 34 39 41 42 51 53 62 61 62 61 62 61 60 65 62 60 58 57 54 56 62 60 64 67 66 64 64 64 64 64 64 65 64 64 63 63 63 64 64 65 67 68 68 70 70 71 72 74 75 76 75 73 72 73 73 73 75 72 73 74 74 75 74 73 73 74 74 75 75 75 75 75 76 75 75 75 73 75 73 75 75 74 75 74 74 75 74 73 74 73 73 73 73 72 72
33 35 33 37 40 42 47 57 63 63 62 61 60 63 61 60 60 61 59 58 59 56 56 59 62 65 66 64 64 63 64 64 64 64 65 63 63 62 62 62 64 64 67 68 68 69 69 69 72 73 73 75 75 74 74 73 72 72 72 76 73 74 76 74 74 74 75 74 74 74 74 74 75 75 75 75 76 74 73 74 74 73 74 74 75 73 73 74 74 72 72 73 73 72 70 71 72
31 30 28 39 43 44 48 60 64 61 59 61 65 64 60 60 59 62 60 59 59 57 57 60 62 62 65 66 65 63 63 64 64 64 64 63 62 62 62 63 64 65 67 67 68 68 69 68 72 72 73 74 75 75 75 73 73 73 73 73 73 74 74 72 72 72 73 74 75 75 76 75 75 74 74 75 74 74 72 72 75 73 73 73 74 74 74 74 73 73 73 73 72 72 70 71 70
21 21 23 34 48 51 57 58 61 64 64 65 64 61 62 61 60 58 59 57 59 61 58 58 62 65 64 65 65 65 63 63 63 64 64 64 63 63 63 64 64 66 66 67 68 67 68 69 70 71 72 73 73 73 73 73 73 73 73 72 73 73 72 72 73 73 73 74 75 76 75 74 74 73 73 74 76 73 72 70 74 75 75 75 74 74 73 73 73 73 73 73 73 72 70 69 68
20 21 29 42 49 54 59 62 63 62 65 66 62 61 62 62 60 58 58 56 61 58 58 61 66 65 66 66 66 65 64 64 64 64 64 66 64 63 63 63 64 64 65 66 67 68 68 69 68 69 71 73 73 73 74 73 74 73 73 73 76 75 73 73 74 71 73 73 74 75 75 75 74 72 72 74 74 73 72 71 74 74 73 75 75 74 74 73 73 73 71 73 70 72 70 68 68
21 22 39 45 56 56 60 61 62 62 63 64 60 59 62 64 59 50 59 56 57 56 58 62 66 64 66 65 66 66 65 64 64 65 65 66 66 64 64 64 63 64 65 66 66 68 70 68 68 70 71 73 72 71 73 74 74 73 73 72 72 71 74 73 72 72 71 73 73 74 73 74 73 71 72 75 75 73 72 72 72 72 72 72 72 75 75 74 74 71 72 70 70 70 68 69 67
21 27 40 49 55 56 59 62 62 60 63 63 63 60 62 63 62 54 57 56 56 56 58 62 62 62 64 66 65 66 65 65 65 66 67 66 65 65 64 65 64 65 65 65 67 70 68 68 68 70 70 72 73 71 74 73 73 74 74 73 71 71 73 74 72 72 73 74 73 73 75 75 72 71 73 74 73 74 71 71 72 72 71 71 73 73 73 73 73 72 71 71 70 70 71 70 72
21 29 30 47 54 58 59 61 63 61 61 62 64 60 59 64 59 60 58 56 56 56 58 60 60 63 63 65 65 64 65 65 66 66 67 67 66 65 65 65 65 66 66 65 67 68 68 68 69 70 70 72 72 71 71 73 73 73 74 73 72 72 72 72 72 72 73 74 73 73 74 75 75 73 75 73 73 75 71 71 72 71 72 72 72 72 72 74 72 72 72 71 70 70 71 70 68
20 26 28 31 45 47 58 62 62 60 65 64 62 45 40 56 60 59 57 56 56 57 58 58 62 61 62 62 64 63 64 65 66 66 66 67 67 66 66 65 66 65 67 67 67 68 69 68 70 70 70 71 73 70 72 73 72 72 74 72 73 73 71 71 72 72 73 73 74 74 76 77 74 73 74 74 72 71 72 72 72 73 74 73 73 73 72 70 71 70 68 68 69 70 69 69 67
20 22 22 26 23 39 53 54 61 57 65 64 61 45 34 56 57 63 62 62 56 56 56 57 62 62 62 61 62 61 62 64 64 65 66 67 67 67 68 67 68 70 69 71 71 69 69 70 70 70 71 71 72 72 72 73 72 71 72 72 73 74 73 71 70 72 72 72 72 73 74 75 75 74 74 74 73 71 70 70 72 73 73 74 73 72 70 70 68 67 65 67 67 69 68 69 67
19 17 23 24 21 42 50 47 56 53 63 61 57 46 35 43 55 59 64 64 56 55 53 56 62 63 61 62 61 59 61 62 63 63 65 66 67 68 68 69 70 73 74 72 74 72 71 72 71 69 71 72 73 73 73 73 72 73 72 70 73 74 72 72 71 71 71 71 71 73 75 75 74 76 76 75 75 72 71 70 70 72 74 74 71 71 70 68 66 65 67 67 64 65 68 68 68
18 16 16 20 21 29 34 49 56 57 56 61 57 42 45 40 55 59 63 64 57 54 53 54 60 61 60 61 61 60 61 61 62 64 64 64 67 66 68 71 74 73 73 72 71 73 73 72 74 70 69 70 73 72 73 73 73 72 72 71 70 71 71 72 72 72 71 71 72 72 74 74 75 76 76 76 75 71 71 72 72 73 74 71 70 70 68 66 66 64 68 70 69 69 65 64 65
16 16 17 26 21 20 21 40 53 55 52 45 57 51 44 41 53 59 62 60 55 52 50 56 60 61 61 60 59 60 61 61 61 64 63 65 65 67 67 70 73 73 72 72 72 70 69 72 71 70 71 70 73 73 73 72 73 73 71 70 71 70 70 71 71 71 72 71 72 71 74 74 75 76 77 76 76 72 73 73 72 72 72 70 69 67 67 66 67 67 68 73 73 72 69 65 63
16 21 19 21 22 25 26 22 49 43 52 48 39 49 50 47 47 55 60 61 53 53 50 51 56 56 60 59 60 60 61 61 61 63 64 63 64 67 68 70 71 72 72 71 71 70 70 71 72 72 72 72 73 74 74 72 73 73 70 71 70 70 71 70 71 71 71 72 71 73 74 74 75 76 77 77 75 73 73 72 71 72 71 70 69 68 68 68 70 71 70 72 75 72 70 68 66
12 14 19 23 20 21 21 29 31 39 32 35 41 39 35 37 42 51 57 59 57 54 53 53 53 55 59 60 61 62 61 61 64 65 64 64 65 66 67 68 69 71 71 72 71 71 72 72 72 74 73 72 73 74 74 71 71 70 69 70 69 69 70 69 70 69 69 70 71 71 73 73 75 76 76 76 75 74 72 71 71 71 71 70 69 67 69 71 73 73 72 70 72 72 71 70 68
12 10 12 20 17 20 34 37 37 44 41 33 37 36 36 37 39 42 57 59 58 56 54 56 56 56 59 62 62 61 62 63 65 67 67 66 68 68 69 69 69 70 70 72 71 72 72 73 73 73 73 73 73 73 72 70 70 70 69 67 67 68 69 69 68 69 68 68 70 70 72 70 75 75 75 75 75 73 72 71 71 71 71 70 70 70 71 71 74 73 74 75 71 70 67 66 65
15 11 10 15 14 18 31 35 45 48 40 28 35 41 41 40 40 45 57 58 56 55 54 55 58 57 60 61 63 62 63 64 67 68 71 70 69 71 70 70 71 66 69 71 71 72 73 72 72 73 73 73 72 72 72 71 71 69 69 67 65 65 68 68 68 69 68 69 70 71 72 71 74 73 74 75 74 72 72 70 71 70 70 71 71 73 73 75 75 74 71 72 71 68 68 64 63
12 10 13 15 16 16 37 49 43 50 43 31 39 39 34 35 40 45 56 56 54 54 55 55 57 59 59 62 61 62 62 63 67 69 71 70 71 72 70 70 70 69 68 69 72 73 73 72 73 74 73 73 72 72 72 71 70 71 69 68 66 65 68 69 68 68 69 70 70 71 72 72 72 72 73 73 72 71 72 70 71 71 71 72 73 74 74 74 75 73 73 70 66 69 68 67 69
8 7 10 10 20 10 13 42 48 52 39 33 36 35 36 41 43 45 55 56 56 59 59 58 58 58 60 60 60 60 61 63 66 68 68 70 70 71 70 70 70 69 69 68 69 72 72 73 73 75 74 74 73 73 72 72 71 72 71 70 69 68 68 69 70 71 70 70 68 70 71 72 72 71 72 72 71 72 72 70 69 69 71 73 72 72 73 74 74 73 70 70 71 66 63 64 65
6 7 7 9 8 9 9 20 31 49 49 49 45 45 34 28 30 45 56 56 58 60 61 61 60 61 61 63 61 61 60 63 66 67 69 70 70 70 70 70 70 69 68 68 68 70 70 71 73 75 75 74 74 74 73 73 73 72 72 72 70 70 69 69 70 68 70 69 68 69 69 72 72 72 72 72 71 73 73 71 69 69 71 73 71 72 74 71 70 70 71 71 71 68 61 63 64
7 9 10 9 9 8 8 12 11 18 36 48 45 20 20 26 31 28 53 55 55 58 59 60 60 61 61 60 60 62 65 65 66 66 67 70 70 70 70 70 70 69 68 68 68 68 71 71 73 76 76 75 74 75 75 73 71 72 70 69 69 68 67 66 68 66 66 67 66 68 69 70 71 72 73 73 72 72 73 72 72 69 71 71 70 70 71 71 71 69 71 69 69 71 70 63 62
8 9 11 11 10 9 10 9 16 16 20 46 43 24 19 20 26 35 46 46 47 57 58 57 60 62 61 61 61 63 66 66 67 67 67 69 70 70 71 70 69 69 68 69 69 70 71 72 74 75 75 75 75 75 75 73 72 71 70 68 67 67 65 65 67 67 66 66 68 68 70 70 72 71 72 73 72 73 73 73 73 71 70 71 72 72 70 69 68 67 70 70 69 69 71 68 65
8 12 12 11 10 9 8 9 15 18 29 43 40 32 23 23 25 35 46 45 48 51 57 59 59 62 61 59 60 64 65 67 68 68 68 69 70 70 70 71 70 69 69 70 70 70 72 74 74 75 76 76 75 75 75 74 73 71 71 70 69 68 66 67 68 69 69 69 69 69 69 69 72 72 71 73 73 73 73 72 73 72 70 70 70 70 69 68 67 69 72 71 72 73 72 70 65
11 14 13 13 11 10 9 9 11 17 19 16 33 38 27 26 31 37 44 37 35 38 47 54 60 61 62 61 59 62 65 68 68 67 67 68 69 70 70 71 71 70 70 70 71 71 72 74 75 76 76 75 75 75 75 74 74 72 71 70 70 70 70 69 69 69 70 71 70 70 70 68 71 72 72 72 73 72 73 71 73 72 71 71 72 70 69 68 69 71 72 73 73 72 71 69 69
15 16 20 22 20 15 14 13 17 24 24 18 20 30 23 26 28 28 41 32 35 37 39 50 56 60 60 59 60 60 64 66 67 67 67 68 69 70 71 71 72 70 71 72 72 73 73 74 75 76 75 75 75 75 75 75 74 73 71 70 71 71 70 71 71 69 70 71 70 70 70 69 68 70 71 73 73 73 72 72 70 69 70 70 70 70 69 70 71 73 73 72 72 72 72 69 67
18 18 22 21 20 20 22 24 27 25 22 19 18 20 21 23 26 24 29 38 31 33 38 47 53 56 58 59 59 59 60 64 66 67 67 68 69 70 71 71 72 72 71 72 72 73 73 74 75 75 76 75 75 74 74 75 74 73 72 71 72 72 71 71 70 70 70 71 70 69 69 69 68 67 68 71 72 71 72 71 68 66 67 70 70 69 70 68 70 71 70 72 73 73 70 70 68
17 16 14 16 23 27 27 29 34 21 12 18 22 21 27 24 25 29 31 36 35 39 41 44 50 54 57 59 59 58 59 62 65 68 68 68 69 70 71 71 73 73 72 72 72 72 72 74 75 75 75 76 74 73 74 74 74 73 72 71 72 72 73 70 71 71 70 70 69 68 69 69 69 67 68 67 69 69 71 70 70 66 67 67 69 70 70 69 72 71 71 72 72 73 73 72 69
14 13 16 15 18 19 20 17 17 13 12 26 29 32 35 35 31 25 27 24 38 45 45 43 48 54 58 58 59 61 61 61 64 67 68 68 68 70 70 71 73 73 72 72 72 71 72 74 75 75 75 75 74 73 73 74 74 74 73 72 72 73 73 73 73 72 70 69 67 68 69 69 69 70 69 67 67 68 69 71 70 68 67 68 70 70 71 71 70 71 70 71 70 73 72 72 69
11 12 13 13 15 15 17 15 15 11 13 24 27 42 29 23 22 26 25 35 40 45 50 49 52 54 60 61 60 60 61 60 61 63 64 67 69 69 70 71 72 73 72 72 72 72 72 73 74 74 75 75 75 73 73 74 74 74 74 73 72 72 72 72 72 71 70 69 68 67 67 67 68 68 68 69 67 67 67 69 71 70 71 71 71 72 72 73 73 70 72 71 70 72 72 72 71
10 9 7 13 16 11 18 15 12 13 17 33 39 27 27 22 35 26 32 37 41 42 44 53 56 59 62 62 60 59 60 62 62 64 65 66 68 69 69 71 72 73 73 72 72 72 73 73 74 74 74 75 75 74 73 73 73 73 74 74 74 74 73 73 72 72 71 70 68 67 68 66 65 67 67 70 71 69 68 69 70 71 71 72 73 73 70 73 74 74 73 73 72 73 73 71 70
9 10 11 11 12 14 12 16 14 14 14 15 36 23 24 27 30 33 36 35 36 45 50 54 56 58 62 62 61 59 59 62 62 64 66 67 67 69 70 71 73 73 74 73 73 73 72 73 74 74 74 75 75 74 74 73 73 74 74 75 74 74 74 73 73 73 73 71 70 69 70 70 66 65 67 69 69 70 69 68 70 70 72 72 72 73 72 71 74 72 72 73 73 69 72 72 70
10 11 11 9 11 9 15 17 17 17 17 18 22 27 22 21 23 27 34 38 42 48 49 48 55 57 60 60 60 59 59 61 61 63 62 67 66 67 69 71 72 72 72 72 73 73 73 73 73 74 74 74 75 75 75 74 74 73 73 73 74 75 74 73 71 72 72 72 71 71 70 70 68 67 65 67 70 71 70 69 69 68 71 72 72 71 69 70 73 72 71 74 72 72 73 72 72
12 11 9 16 16 14 18 14 24 19 13 24 21 17 20 24 27 26 35 40 34 44 42 48 57 58 57 58 61 61 60 61 62 63 64 64 66 66 68 68 70 71 72 72 74 74 73 73 72 73 73 73 74 74 75 74 73 72 72 72 72 72 73 73 73 72 73 73 71 71 71 70 70 66 65 65 68 70 71 72 70 70 69 71 71 70 70 70 73 72 71 74 73 74 74 73 72
11 9 14 11 15 14 17 16 17 17 18 19 16 20 21 23 33 26 30 28 33 38 47 51 51 54 55 57 60 63 62 62 63 62 63 64 64 65 67 67 69 71 71 72 74 74 73 72 72 72 72 73 73 73 73 73 72 72 72 72 71 72 72 72 73 73 73 72 71 71 70 70 69 70 68 69 70 69 70 70 71 69 69 70 70 70 70 70 72 71 70 71 73 74 75 74 73
12 13 10 11 15 14 19 18 19 23 17 17 23 21 19 31 27 21 26 30 34 35 42 40 44 50 55 56 57 60 62 64 64 62 61 62 63 64 65 66 68 71 71 72 73 73 74 73 73 73 73 73 73 73 73 73 73 73 73 73 72 73 73 72 72 73 71 70 71 71 71 69 69 70 69 69 68 68 67 68 68 67 67 68 69 68 68 69 71 71 69 68 69 74 73 73 72
10 10 10 11 12 16 15 16 15 16 19 20 21 16 24 33 23 24 30 33 38 38 41 46 47 50 53 55 57 61 63 63 64 62 60 61 63 64 66 68 69 72 72 72 72 72 73 73 71 72 71 70 70 70 71 71 71 72 72 72 72 72 72 74 74 73 72 72 72 71 70 70 71 71 70 69 69 68 67 66 67 68 66 69 70 68 67 69 71 71 70 71 70 73 71 71 71
11 9 9 9 10 14 15 20 14 13 14 20 20 22 29 26 27 39 35 45 46 49 47 48 49 50 53 56 61 62 62 63 63 60 58 61 65 65 68 69 70 72 72 73 72 71 73 72 71 69 69 70 70 69 71 71 71 71 72 71 72 72 72 72 73 74 73 71 71 70 70 71 70 72 70 70 71 69 66 65 66 66 67 67 70 70 66 66 68 70 70 67 68 73 74 71 72